EW8754 Weather Reports


time (UTC)temp
C
wind
direction
speed
KPH
gust
KPH
rain 1hr
cm
rain 24hr
cm
rain mn
cm
humidity
%
barometer
mb
20260507145008 13 130 6.4 19.3 0.00 0.61 0.33 60 1005.4
20260507144719 12 87 8.0 19.3 0.00 0.61 0.33 64 1005.5
20260507144521 13 167 8.0 19.3 0.00 0.61 0.33 63 1005.5
20260507143710 12 115 8.0 19.3 0.00 0.61 0.33 68 1005.6
20260507143453 12 78 6.4 19.3 0.00 0.61 0.33 65 1005.6
20260507142448 12 116 8.0 19.3 0.00 0.61 0.33 66 1005.7
20260507141942 12 82 6.4 17.7 0.00 0.61 0.33 68 1005.8
20260507141658 12 76 6.4 14.5 0.00 0.61 0.33 68 1005.7
20260507140936 12 59 6.4 14.5 0.00 0.61 0.33 69 1005.7
20260507140438 12 51 4.8 17.7 0.00 0.61 0.33 70 1005.7
20260507135932 12 74 4.8 17.7 0.00 0.61 0.33 71 1005.7
20260507135437 12 353 4.8 17.7 0.00 0.61 0.33 72 1005.6
20260507134943 12 27 6.4 17.7 0.00 0.61 0.33 72 1005.6
20260507134440 12 92 6.4 16.1 0.00 0.61 0.33 74 1005.6
20260507133938 11 352 4.8 16.1 0.00 0.61 0.33 75 1005.6
20260507133913 11 82 4.8 16.1 0.00 0.61 0.33 75 1005.7
20260507132922 11 32 4.8 12.9 0.00 0.61 0.33 77 1005.7
20260507132419 11 258 4.8 22.5 0.00 0.61 0.33 78 1005.7
20260507131955 11 9 4.8 22.5 0.00 0.61 0.33 79 1005.8
20260507131632 10 71 8.0 22.5 0.00 0.61 0.33 79 1005.7
20260507131153 10 75 6.4 20.9 0.00 0.61 0.33 83 1005.8
20260507130951 10 57 8.0 22.5 0.00 0.61 0.33 80 1005.8
20260507125923 10 33 4.8 17.7 0.00 0.61 0.33 86 1005.8
20260507125426 10 82 4.8 17.7 0.00 0.61 0.33 88 1005.8
20260507124924 10 128 4.8 17.7 0.00 0.61 0.33 91 1005.9
20260507124420 9 70 4.8 17.7 0.00 0.61 0.33 92 1005.8
20260507123919 9 92 3.2 14.5 0.00 0.61 0.33 92 1005.8
20260507123443 9 82 4.8 14.5 0.00 0.61 0.33 92 1005.9
20260507122933 9 2 1.6 8.0 0.00 0.61 0.33 93 1005.9
20260507122404 9 104 1.6 6.4 0.00 0.61 0.33 94 1005.9
20260507122132 8 82 1.6 9.7 0.00 0.61 0.33 93 1006.0
20260507121611 8 87 3.2 9.7 0.00 0.61 0.33 93 1006.0
20260507121350 8 87 3.2 9.7 0.00 0.61 0.33 93 1006.0
20260507120851 8 58 3.2 9.7 0.00 0.61 0.33 93 1005.9
20260507120356 8 71 1.6 9.7 0.00 0.61 0.33 93 1005.9
20260507120139 8 50 1.6 6.4 0.00 0.61 0.33 94 1005.8
20260507115337 8 54 1.6 6.4 0.00 0.61 0.33 94 1005.8
20260507115100 8 52 3.2 8.0 0.00 0.61 0.33 93 1005.6
20260507114337 8 69 3.2 8.0 0.00 0.61 0.33 93 1005.7
20260507113836 8 92 1.6 4.8 0.00 0.61 0.33 93 1005.7
20260507113346 8 92 1.6 4.8 0.00 0.61 0.33 93 1005.8
20260507113158 8 106 1.6 4.8 0.00 0.61 0.33 93 1005.6
20260507113132 8 45 1.6 3.2 0.00 0.61 0.33 93 1005.7
20260507112916 8 104 1.6 4.8 0.00 0.61 0.33 93 1005.7
20260507111800 8 62 0.0 3.2 0.00 0.61 0.33 93 1005.6
20260507111421 8 45 1.6 3.2 0.00 0.61 0.33 93 1005.6
20260507110325 8 65 0.0 1.6 0.00 0.61 0.33 93 1005.5
20260507105832 8 65 1.6 6.4 0.00 0.61 0.33 93 1005.6
20260507105600 8 65 1.6 6.4 0.00 0.61 0.33 93 1005.4
20260507105127 8 281 0.0 0.0 0.05 0.61 0.33 93 1005.6
20260507104847 8 52 1.6 6.4 0.00 0.61 0.33 93 1005.2
20260507104718 8 281 0.0 3.2 0.08 0.61 0.33 93 1005.7
20260507104704 8 82 1.6 6.4 0.03 0.61 0.33 93 1005.1
20260507104031 8 100 0.0 4.8 0.03 0.61 0.33 93 1005.3
20260507103429 8 281 0.0 0.0 0.03 0.61 0.33 93 1005.4
20260507102435 8 281 0.0 0.0 0.05 0.61 0.33 93 1005.6
20260507101326 8 34 0.0 3.2 0.10 0.61 0.33 93 1005.4
20260507100813 8 34 0.0 3.2 0.10 0.61 0.33 93 1005.3
20260507100317 8 35 0.0 3.2 0.13 0.61 0.33 92 1005.1
20260507100034 8 29 0.0 3.2 0.13 0.61 0.33 92 1005.2
20260507095259 8 75 0.0 4.8 0.15 0.61 0.33 92 1005.2
20260507095033 8 77 0.0 4.8 0.18 0.61 0.30 92 1005.2
20260507094304 8 77 1.6 9.7 0.18 0.58 0.30 92 1004.9
20260507093806 8 77 1.6 9.7 0.20 0.58 0.30 92 1004.9
20260507093303 8 64 1.6 11.3 0.23 0.58 0.28 92 1004.8
20260507092800 8 75 3.2 11.3 0.20 0.56 0.28 92 1004.9
20260507092306 8 104 3.2 9.7 0.20 0.56 0.28 92 1004.8
20260507091748 8 77 3.2 16.1 0.18 0.53 0.23 91 1004.9
20260507091254 8 357 3.2 16.1 0.15 0.51 0.23 91 1004.8
20260507090747 8 51 4.8 17.7 0.18 0.51 0.23 91 1004.8
20260507090341 8 99 4.8 17.7 0.15 0.48 0.20 91 1004.7
20260507085745 8 71 4.8 17.7 0.18 0.48 0.18 91 1004.9
20260507085426 8 92 4.8 17.7 0.15 0.46 0.18 90 1005.2
20260507084838 8 71 4.8 12.9 0.13 0.43 0.13 90 1005.2
20260507084038 8 77 3.2 9.7 0.10 0.38 0.10 89 1005.2
20260507083425 8 71 3.2 9.7 0.08 0.36 0.08 89 1005.2
20260507083319 8 92 3.2 8.0 0.08 0.36 0.08 89 1005.2
20260507082408 8 87 3.2 9.7 0.08 0.36 0.08 88 1005.1
20260507081823 9 45 3.2 8.0 0.08 0.36 0.08 88 1005.1
20260507080803 9 52 1.6 12.9 0.05 0.33 0.05 86 1004.8
20260507080541 9 48 3.2 14.5 0.05 0.33 0.05 85 1004.8
20260507080356 9 44 4.8 14.5 0.03 0.30 0.03 84 1005.1
20260507080313 9 48 3.2 14.5 0.05 0.33 0.05 85 1004.8
20260507075237 9 31 4.8 20.9 0.03 0.30 0.03 84 1005.2
20260507075026 10 28 4.8 20.9 0.03 0.30 0.03 84 1005.1
20260507074235 10 44 6.4 20.9 0.00 0.28 0.00 83 1004.9
20260507073744 10 40 6.4 20.9 0.00 0.28 0.00 81 1004.9
20260507073247 10 75 3.2 14.5 0.00 0.28 0.00 81 1004.7
20260507073127 10 110 4.8 14.5 0.00 0.28 0.00 79 1004.8
20260507072239 10 60 4.8 14.5 0.00 0.28 0.00 78 1004.8
20260507071753 10 50 6.4 14.5 0.00 0.28 0.00 78 1004.7
20260507071248 11 21 4.8 14.5 0.00 0.28 0.00 80 1004.5
20260507071005 11 62 3.2 8.0 0.00 0.28 0.00 81 1004.1
20260507070822 11 73 4.8 14.5 0.00 0.28 0.00 81 1004.1
20260507065948 11 70 3.2 14.5 0.00 0.28 0.00 81 1004.2
20260507065331 11 59 4.8 14.5 0.00 0.28 0.00 82 1004.2
20260507065234 11 92 3.2 12.9 0.00 0.28 0.00 82 1004.0
20260507064418 11 72 4.8 16.1 0.00 0.28 0.00 83 1004.2
20260507063553 11 82 4.8 16.1 0.00 0.28 0.00 85 1004.3
20260507063314 11 49 4.8 16.1 0.00 0.28 0.00 85 1004.2
20260507062208 11 12 4.8 16.1 0.00 0.28 0.00 86 1004.5
20260507061724 11 113 3.2 16.1 0.00 0.28 0.00 86 1004.4
20260507061208 11 42 4.8 16.1 0.00 0.28 0.00 86 1004.3
20260507060416 11 67 6.4 17.7 0.00 0.28 0.00 87 1004.2
20260507060242 11 92 4.8 17.7 0.00 0.28 0.00 87 1004.1
20260507055424 11 82 4.8 17.7 0.00 0.28 0.00 88 1004.3
20260507054847 12 36 6.4 14.5 0.00 0.28 0.00 90 1004.5
20260507054723 12 82 4.8 17.7 0.00 0.28 0.00 89 1004.5
20260507053643 12 77 6.4 17.7 0.00 0.28 0.00 91 1004.4
20260507053413 12 92 4.8 16.1 0.00 0.28 0.00 92 1004.5
20260507052652 12 10 4.8 12.9 0.00 0.28 0.00 92 1004.7
20260507052133 12 74 4.8 12.9 0.00 0.28 0.00 92 1004.9
20260507051627 12 67 4.8 11.3 0.00 0.28 0.00 93 1004.7
20260507051135 12 40 3.2 6.4 0.00 0.28 0.00 93 1004.5
20260507051114 13 72 1.6 9.7 0.00 0.28 0.00 94 1004.3
20260507051010 13 68 3.2 9.7 0.00 0.28 0.00 94 1004.3
20260507050739 12 5 3.2 9.7 0.00 0.28 0.00 93 1004.5
20260507050154 13 66 3.2 9.7 0.00 0.28 0.00 93 1004.4
20260507045836 13 55 3.2 11.3 0.00 0.28 0.00 93 1004.3
20260507045235 13 74 3.2 11.3 0.00 0.28 0.00 93 1004.3
20260507043616 13 11 3.2 8.0 0.00 0.28 0.00 94 1004.4
20260507043119 13 60 3.2 9.7 0.00 0.28 0.00 94 1004.4
20260507042622 13 63 3.2 9.7 0.00 0.28 0.00 94 1004.3
20260507042123 13 82 3.2 19.3 0.00 0.28 0.00 94 1004.3
20260507041617 13 78 3.2 19.3 0.00 0.28 0.00 94 1004.3
20260507041118 13 40 4.8 19.3 0.00 0.28 0.00 94 1004.3
20260507040621 13 29 4.8 19.3 0.00 0.28 0.00 94 1004.5
20260507040119 14 42 3.2 9.7 0.00 0.28 0.00 94 1004.3
20260507035601 14 75 3.2 6.4 0.00 0.28 0.28 95 1004.4
20260507035058 14 27 3.2 6.4 0.00 0.28 0.28 95 1004.4
20260507034602 14 6 3.2 8.0 0.00 0.28 0.28 95 1004.5
20260507034217 14 1 1.6 9.7 0.00 0.28 0.28 95 1004.4
20260507034134 14 21 3.2 8.0 0.00 0.28 0.28 95 1004.5
20260507033052 14 285 1.6 9.7 0.00 0.28 0.28 95 1004.4
20260507032916 14 92 1.6 8.0 0.00 0.28 0.28 95 1004.3
20260507032152 14 61 3.2 14.5 0.00 0.28 0.28 95 1004.2
20260507031646 14 6 3.2 14.5 0.00 0.28 0.28 95 1004.2
20260507030558 14 261 1.6 14.5 0.00 0.28 0.28 95 1004.0
20260507030333 14 4 1.6 11.3 0.00 0.28 0.28 95 1003.9
20260507030054 14 4 1.6 11.3 0.00 0.28 0.28 95 1003.9
20260507025558 14 302 3.2 11.3 0.00 0.28 0.28 95 1003.9
20260507025046 14 20 3.2 12.9 0.00 0.28 0.28 95 1003.9
20260507024549 14 223 3.2 12.9 0.00 0.28 0.28 95 1004.0
20260507024044 14 157 1.6 11.3 0.00 0.28 0.28 95 1004.0
20260507023550 14 334 3.2 12.9 0.00 0.28 0.28 95 1003.8
20260507023046 14 273 3.2 12.9 0.00 0.28 0.28 95 1003.7
20260507022541 14 303 3.2 9.7 0.00 0.28 0.28 95 1003.9
20260507022054 14 148 3.2 17.7 0.00 0.28 0.28 95 1003.9
20260507021544 13 92 3.2 17.7 0.00 0.28 0.28 95 1003.9
20260507021043 13 302 3.2 17.7 0.00 0.28 0.28 95 1003.9
20260507020826 13 337 3.2 17.7 0.00 0.28 0.28 95 1003.8
20260507020736 13 252 1.6 11.3 0.00 0.28 0.28 95 1003.9
20260507020511 13 183 1.6 9.7 0.00 0.28 0.28 95 1004.1
20260507020438 13 221 3.2 12.9 0.00 0.28 0.28 94 1004.1
20260507014612 13 324 1.6 12.9 0.00 0.28 0.28 94 1004.0
20260507014050 13 176 3.2 14.5 0.00 0.28 0.28 94 1003.9
20260507013543 13 202 3.2 14.5 0.00 0.28 0.28 94 1003.7
20260507013031 13 337 3.2 17.7 0.00 0.28 0.28 94 1003.9
20260507012529 13 251 3.2 17.7 0.00 0.28 0.28 94 1003.9
20260507012146 13 267 3.2 19.3 0.00 0.28 0.28 94 1004.1
20260507012104 13 269 3.2 19.3 0.00 0.28 0.28 94 1004.0
20260507011709 13 312 4.8 19.3 0.00 0.28 0.28 94 1004.2
20260507011026 13 267 3.2 19.3 0.00 0.28 0.28 94 1004.1
20260507010514 13 56 3.2 19.3 0.00 0.28 0.28 94 1004.2
20260507010235 13 298 4.8 20.9 0.00 0.28 0.28 94 1004.2
20260507005519 13 283 4.8 20.9 0.00 0.28 0.28 94 1004.3
20260507005006 13 325 4.8 14.5 0.00 0.28 0.28 94 1004.1
20260507004516 13 15 4.8 12.9 0.00 0.28 0.28 94 1004.2
20260507004000 13 310 3.2 16.1 0.03 0.28 0.28 94 1004.1
20260507003455 13 281 3.2 16.1 0.03 0.28 0.28 94 1004.3
20260507002954 13 25 1.6 14.5 0.03 0.28 0.28 94 1004.3
20260507002450 13 14 1.6 14.5 0.03 0.28 0.28 94 1004.2
20260507001939 13 237 3.2 16.1 0.05 0.28 0.28 94 1004.1
20260507001436 13 346 4.8 16.1 0.05 0.28 0.28 94 1004.0
20260507000935 14 221 4.8 12.9 0.05 0.28 0.28 94 1004.0
20260507000438 14 281 4.8 16.1 0.08 0.28 0.28 94 1003.9
20260506235922 14 259 4.8 16.1 0.08 0.28 0.28 94 1003.9
20260506235426 14 251 4.8 16.1 0.08 0.28 0.28 94 1003.8
20260506234924 14 314 3.2 24.1 0.08 0.28 0.28 94 1003.8
20260506234443 14 289 3.2 24.1 0.10 0.28 0.28 94 1003.8
20260506233920 14 283 4.8 12.9 0.08 0.25 0.25 94 1003.8
20260506233426 14 283 3.2 24.1 0.08 0.25 0.25 94 1003.8
20260506233048 14 262 4.8 27.4 0.03 0.20 0.20 93 1003.8
20260506233025 14 300 3.2 25.7 0.05 0.23 0.23 93 1003.7
20260506232936 14 272 3.2 11.3 0.08 0.25 0.25 94 1003.7
20260506232551 14 273 3.2 24.1 0.08 0.25 0.23 93 1003.7
20260506231946 14 312 3.2 24.1 0.05 0.23 0.23 93 1003.7
20260506231629 14 272 3.2 25.7 0.05 0.23 0.23 93 1003.6
20260506230146 14 276 4.8 27.4 0.03 0.20 0.20 93 1003.9
20260506225804 14 331 4.8 14.5 0.03 0.20 0.20 93 1003.8
20260506225657 14 203 3.2 14.5 0.03 0.20 0.20 93 1003.9
20260506224650 14 215 4.8 14.5 0.00 0.18 0.18 93 1003.9
20260506224133 14 275 4.8 14.5 0.05 0.18 0.18 92 1004.1
20260506224050 14 283 3.2 14.5 0.00 0.18 0.18 93 1003.8
20260506223954 14 295 3.2 11.3 0.00 0.18 0.18 93 1003.9
20260506223355 15 10 3.2 12.9 0.05 0.18 0.18 92 1004.1
20260506223200 14 256 4.8 14.5 0.03 0.18 0.18 93 1003.8
20260506223151 14 327 4.8 14.5 0.03 0.18 0.18 93 1003.8
20260506223015 14 292 3.2 14.5 0.03 0.18 0.18 93 1003.9
20260506221524 14 111 4.8 14.5 0.03 0.18 0.18 93 1003.9
20260506220449 14 298 4.8 14.5 0.05 0.18 0.18 92 1004.2
20260506220119 15 26 3.2 14.5 0.05 0.18 0.18 92 1004.2
20260506214857 15 267 3.2 16.1 0.05 0.18 0.18 92 1004.2
20260506214438 15 269 4.8 25.7 0.05 0.18 0.18 92 1004.2
20260506214356 15 261 3.2 14.5 0.05 0.18 0.18 92 1004.2
20260506213353 15 302 4.8 25.7 0.05 0.18 0.18 92 1004.2
20260506212851 15 323 6.4 20.9 0.03 0.15 0.15 92 1004.4
20260506212351 15 237 6.4 20.9 0.03 0.15 0.15 91 1004.4
20260506211915 15 320 4.8 17.7 0.05 0.15 0.15 91 1004.5
20260506211836 15 310 4.8 16.1 0.05 0.15 0.13 91 1004.6
20260506211101 15 286 3.2 16.1 0.03 0.13 0.13 91 1004.5
20260506210342 15 246 3.2 16.1 0.03 0.13 0.13 91 1004.5
20260506205832 15 356 4.8 16.1 0.03 0.13 0.13 91 1004.4
20260506205623 15 183 4.8 12.9 0.03 0.13 0.13 91 1004.6
20260506205339 15 257 4.8 12.9 0.03 0.13 0.13 91 1004.6
20260506204957 15 263 4.8 12.9 0.03 0.13 0.13 91 1004.6
20260506203821 15 264 4.8 14.5 0.03 0.13 0.13 90 1004.7
20260506203335 15 219 3.2 14.5 0.05 0.13 0.13 90 1004.6
20260506202829 15 296 3.2 16.1 0.05 0.13 0.13 90 1004.8
20260506202324 15 320 3.2 16.1 0.08 0.13 0.10 90 1004.8
20260506201821 15 352 3.2 16.1 0.05 0.10 0.10 90 1004.9
20260506201608 15 305 3.2 12.9 0.05 0.10 0.10 89 1004.9
20260506201407 15 304 3.2 16.1 0.05 0.10 0.10 89 1004.9
20260506200545 15 345 4.8 16.1 0.08 0.10 0.10 89 1004.9
20260506195812 15 218 4.8 14.5 0.08 0.10 0.10 88 1004.8
20260506195317 15 271 4.8 17.7 0.08 0.10 0.10 88 1004.8
20260506194819 15 285 3.2 17.7 0.10 0.10 0.10 89 1004.8
20260506194304 15 282 3.2 11.3 0.10 0.10 0.10 88 1004.9
20260506193758 15 335 4.8 11.3 0.10 0.10 0.10 88 1004.7
20260506193258 15 268 3.2 11.3 0.08 0.08 0.08 87 1004.8
20260506192753 15 235 3.2 11.3 0.08 0.08 0.08 86 1004.9
20260506192305 16 279 3.2 22.5 0.05 0.05 0.05 85 1005.2
20260506192029 16 293 3.2 22.5 0.05 0.05 0.05 85 1005.1
20260506191306 16 251 4.8 22.5 0.05 0.05 0.05 84 1005.1
20260506190758 16 27 3.2 22.5 0.05 0.05 0.05 82 1005.1
20260506190318 16 279 4.8 17.7 0.03 0.03 0.03 81 1005.2
20260506190036 16 202 6.4 19.3 0.03 0.03 0.03 79 1005.2
20260506185720 17 308 4.8 19.3 0.00 0.00 0.00 76 1005.3
20260506185627 17 271 4.8 19.3 0.03 0.03 0.00 77 1005.3
20260506184252 17 318 4.8 19.3 0.00 0.00 0.00 74 1005.4
20260506183740 18 168 4.8 19.3 0.00 0.00 0.00 73 1005.3
20260506183245 18 121 3.2 19.3 0.00 0.00 0.00 72 1005.3
20260506182743 18 260 4.8 19.3 0.00 0.00 0.00 72 1005.3
20260506182235 18 312 6.4 19.3 0.00 0.00 0.00 70 1005.4
20260506181807 19 6 4.8 19.3 0.00 0.00 0.00 68 1005.3
20260506181302 20 220 3.2 12.9 0.00 0.00 0.00 66 1005.5
20260506180831 20 308 4.8 22.5 0.00 0.00 0.00 64 1005.5
20260506180813 19 294 6.4 25.7 0.00 0.00 0.00 66 1005.5
20260506180408 20 258 8.0 25.7 0.00 0.00 0.00 65 1005.4
20260506175418 21 210 6.4 29.0 0.00 0.00 0.00 60 1005.8
20260506175412 21 60 8.0 22.5 0.00 0.00 0.00 59 1005.9
20260506175258 20 161 6.4 22.5 0.00 0.00 0.00 63 1005.5
20260506174924 20 277 6.4 25.7 0.00 0.00 0.00 61 1005.4
20260506174910 21 294 6.4 27.4 0.00 0.00 0.00 60 1005.6
20260506174816 20 190 8.0 25.7 0.00 0.00 0.00 61 1005.6
20260506174748 21 284 8.0 27.4 0.00 0.00 0.00 58 1005.7
20260506174725 21 308 6.4 27.4 0.00 0.00 0.00 58 1005.7
20260506174711 22 303 6.4 19.3 0.00 0.00 0.00 57 1005.8
20260506174705 22 281 6.4 29.0 0.00 0.00 0.00 59 1005.6
20260506173944 21 34 6.4 25.7 0.00 0.00 0.00 61 1005.5
20260506173326 21 252 6.4 25.7 0.00 0.00 0.00 59 1005.7
20260506172342 21 306 8.0 27.4 0.00 0.00 0.00 59 1005.5
20260506170323 22 275 6.4 19.3 0.00 0.00 0.00 56 1005.7
20260506165950 22 354 8.0 19.3 0.00 0.00 0.00 56 1005.4
20260506164044 21 21 8.0 25.7 0.00 0.00 0.00 60 1006.2
20260506163801 21 225 6.4 20.9 0.00 0.00 0.00 59 1006.0
20260506163415 21 347 6.4 27.4 0.00 0.00 0.00 59 1006.1
20260506162749 21 92 8.0 27.4 0.00 0.00 0.00 58 1006.1
20260506161652 21 319 6.4 25.7 0.00 0.00 0.00 59 1006.2
20260506161211 21 205 6.4 29.0 0.00 0.00 0.00 59 1006.3
20260506160700 21 301 6.4 29.0 0.00 0.00 0.00 59 1006.3
20260506160205 21 254 6.4 24.1 0.00 0.00 0.00 60 1006.5
20260506155650 21 268 6.4 24.1 0.00 0.00 0.00 60 1006.5
20260506155143 21 225 4.8 24.1 0.00 0.00 0.00 60 1006.5
20260506155000 21 202 4.8 20.9 0.00 0.00 0.00 61 1006.6
20260506154146 20 256 6.4 20.9 0.00 0.00 0.00 62 1006.7
20260506153650 20 244 6.4 24.1 0.00 0.00 0.00 62 1006.7
20260506153145 20 142 6.4 24.1 0.00 0.00 0.00 63 1006.8
20260506152640 20 250 6.4 24.1 0.00 0.00 0.00 62 1006.9
20260506152138 21 333 6.4 24.1 0.00 0.00 0.00 61 1007.0
20260506151626 21 262 6.4 20.9 0.00 0.00 0.00 63 1007.0
20260506151137 20 337 6.4 16.1 0.00 0.00 0.00 62 1007.0
20260506150632 20 350 6.4 16.1 0.00 0.00 0.00 63 1007.1
20260506150132 20 214 4.8 16.1 0.00 0.00 0.00 63 1007.1
20260506145629 20 254 4.8 16.1 0.00 0.00 0.00 63 1007.1